Other Surface Observations
Issued by NWS Charleston, SC

Home | Current Version | Previous Version | Text Only | Print | Product List | Glossary On
Versions: 1 2 3 4 5 6 7 8 9 10 11 12 13 14 15 16 17 18 19 20 21 22 23 24 25 26 27 28 29 30 31 32 33 34 35 36 37 38 39 40 41 42 43 44 45 46 47 48 49 50
000
SXUS52 KCHS 281025
OSOCHS

MARINE OBSERVATIONS
NATIONAL WEATHER SERVICE CHARLESTON SC
600 AM EDT MON JUL 28 2014

...DOWNTOWN CHARLESTON AND HARBOR...

CITY           SKY/WX    TMP DP  RH WIND       PRES   REMARKS
WATERFRONT PRK   N/A     84 N/A N/A SW7         N/A
FORT JOHNSON   NOT AVBL

...LAKE MOULTRIE...

CITY           SKY/WX    TMP DP  RH WIND       PRES   REMARKS
PINOPOLIS        N/A     82  73  74 SW12      29.77F

...LAKE AND SUPPLEMENTAL COASTAL OBSERVATIONS...

STATION/POSITION TIME  TEMP    WIND        PRES    WAVE   SWELL
                       AIR SEA DIR/SP/G            HT/PER HT/PER/DIR
                 (UTC) (F)     (DEG/KT/KT) (MB)    (FT/S) (FT/S/D)
FORT PULASKI     1000   81     240/  7/ 10 1013.5R
SAPELO ISLAND    0900   82     240/ 12     1014.0S
UPR LAKE MARION  NOT AVBL
WINYAH BAY       1000   83     250/  8     1010.0S
LAKE MURRAY      0900   83     310/  2/  8 1010.2S
ACE BASIN NERRS  1000   81     250/  3     1012.0S


...C-MAN AND BUOY OBSERVATIONS...

STATION/POSITION TIME  TEMP    WIND        PRES    WAVE   SWELL
                       AIR SEA DIR/SP/G            HT/PER HT/PER/DIR
                 (UTC) (F)     (DEG/KT/KT) (MB)    (FT/S) (FT/S/D)
BUOY 41004       1000   84 83  240/ 17/ 19 1011.0S   5/ 6   2/10
BUOY 41008       1000   83 84  260/ 16/ 19 1013.5R   3/ 4   2/140/ 8
FOLLY BEACH CMAN 1000   81     240/  8/ 11 1012.5S
CAPERS NS BUOY   0900   84     280/ 16/ 19   N/A
FRIPP NS BUOY    NOT AVBL
5E ST. MARYS GA  1000      85                N/A     2/10
FRYING PAN BUOY  NOT AVBL
BUOY 41025       1000          VRB 23/ 27  1007.6R   6/ 6   2/110/ 9
CAPE LOOKOUT NC  1000   82     230/ 12/ 16 1008.8R
BUOY 41002       0909   81 80  240/ 16/ 19 1014.8R   6/ 7   2/140/ 9
BUOY 41010       1000   83 84  230/ 14/ 16 1016.0R   4/ 4   2/140/ 9
BUOY 41012       NOT AVBL
ST AUGUSTINE FL  1000   78     240/  7/  9 1016.7R


$$



USA.gov is the U.S. government's official web portal to all federal, state and local government web resources and services.